ENDUROSAT ONE

Last updated on Fri Oct 16 2020 00:02:10 GMT+0000 (Coordinated Universal Time)

1 43551U 98067NZ 20289.40008140 .12819970 12606-4 34454-3 0 9995 2 43551 51.6143 6.3935 0004068 320.9805 39.0930 16.45548142129489

Satellite not in orbit